Powrót do katalogu

STARLINK-4590

AktywnyŁącznośćVLEO
NORAD 53606·PAYLOAD·🇺🇸 United States

Wystrzelony Aug 28, 2022 z Cape Canaveral Space Force Station

Loading…

Następne Przeloty (najbliższe 24 godziny)

TLE

ŚwieżeSource: CelesTrak SupGP

Epoka: Sep 14, 2026, 22:08 UTC

1 53606C 22104U   26257.92270833  .00027807  00000+0  82191-3 0  2579
2 53606  53.1590  93.5004 0001277  82.1376 234.0767 15.34363575    12

Śledź STARLINK-4590 w czasie rzeczywistym z AllMySat

Download on the App Store